Year,Month,Day,Hour,Minute,Value (Times are PST for temperature in C)
2010,07,23,00,00,16.40
2010,07,23,00,01,16.30
2010,07,23,00,02,16.30
2010,07,23,00,03,16.30
2010,07,23,00,04,16.30
2010,07,23,00,05,16.30
2010,07,23,00,06,16.30
2010,07,23,00,07,16.20
2010,07,23,00,08,16.20
2010,07,23,00,09,16.20
2010,07,23,00,10,16.20
2010,07,23,00,11,16.20
2010,07,23,00,12,16.20
2010,07,23,00,13,16.20
2010,07,23,00,14,16.20
2010,07,23,00,15,16.10
2010,07,23,00,16,16.10
2010,07,23,00,17,16.10
2010,07,23,00,18,16.10
2010,07,23,00,19,16.10
2010,07,23,00,20,16.10
2010,07,23,00,21,16.10
2010,07,23,00,22,16.10
2010,07,23,00,23,16.10
2010,07,23,00,24,16.10
2010,07,23,00,25,16.10
2010,07,23,00,26,16.10
2010,07,23,00,27,16.10
2010,07,23,00,28,16.10
2010,07,23,00,29,16.10
2010,07,23,00,30,16.10
2010,07,23,00,31,16.10
2010,07,23,00,32,16.00
2010,07,23,00,33,16.00
2010,07,23,00,34,16.00
2010,07,23,00,35,16.00
2010,07,23,00,36,15.90
2010,07,23,00,37,15.90
2010,07,23,00,38,15.90
2010,07,23,00,39,15.90
2010,07,23,00,40,15.90
2010,07,23,00,41,15.90
2010,07,23,00,42,15.90
2010,07,23,00,43,15.90
2010,07,23,00,44,15.80
2010,07,23,00,45,15.80
2010,07,23,00,46,15.80
2010,07,23,00,47,15.80
2010,07,23,00,48,15.80
2010,07,23,00,49,15.80
2010,07,23,00,50,15.80
2010,07,23,00,51,15.80
2010,07,23,00,52,15.80
2010,07,23,00,53,15.80
2010,07,23,00,54,15.80
2010,07,23,00,55,15.80
2010,07,23,00,56,15.80
2010,07,23,00,57,15.70
2010,07,23,00,58,15.70
2010,07,23,00,59,15.70
2010,07,23,01,00,15.70
2010,07,23,01,01,15.70
2010,07,23,01,02,15.70
2010,07,23,01,03,15.60
2010,07,23,01,04,15.60
2010,07,23,01,05,15.60
2010,07,23,01,06,15.60
2010,07,23,01,07,15.60
2010,07,23,01,08,15.50
2010,07,23,01,09,15.50
2010,07,23,01,10,15.50
2010,07,23,01,11,15.40
2010,07,23,01,12,15.40
2010,07,23,01,13,15.40
2010,07,23,01,14,15.40
2010,07,23,01,15,15.30
2010,07,23,01,16,15.30
2010,07,23,01,17,15.30
2010,07,23,01,18,15.30
2010,07,23,01,19,15.30
2010,07,23,01,20,15.30
2010,07,23,01,21,15.30
2010,07,23,01,22,15.30
2010,07,23,01,23,15.30
2010,07,23,01,24,15.30
2010,07,23,01,25,15.30
2010,07,23,01,26,15.30
2010,07,23,01,27,15.30
2010,07,23,01,28,15.30
2010,07,23,01,29,15.20
2010,07,23,01,30,15.20
2010,07,23,01,31,15.20
2010,07,23,01,32,15.20
2010,07,23,01,33,15.10
2010,07,23,01,34,15.10
2010,07,23,01,35,15.00
2010,07,23,01,36,15.00
2010,07,23,01,37,15.00
2010,07,23,01,38,14.90
2010,07,23,01,39,14.90
2010,07,23,01,40,14.90
2010,07,23,01,41,14.80
2010,07,23,01,42,14.80
2010,07,23,01,43,14.80
2010,07,23,01,44,14.80
2010,07,23,01,45,14.80
2010,07,23,01,46,14.80
2010,07,23,01,47,14.80
2010,07,23,01,48,14.80
2010,07,23,01,49,14.80
2010,07,23,01,50,14.80
2010,07,23,01,51,14.80
2010,07,23,01,52,14.80
2010,07,23,01,53,14.80
2010,07,23,01,54,14.80
2010,07,23,01,55,14.80
2010,07,23,01,56,14.80
2010,07,23,01,57,14.70
2010,07,23,01,58,14.70
2010,07,23,01,59,14.70
2010,07,23,02,00,14.70
2010,07,23,02,01,14.70
2010,07,23,02,02,14.70
2010,07,23,02,03,14.60
2010,07,23,02,04,14.60
2010,07,23,02,05,14.60
2010,07,23,02,06,14.60
2010,07,23,02,07,14.60
2010,07,23,02,08,14.50
2010,07,23,02,09,14.50
2010,07,23,02,10,14.50
2010,07,23,02,11,14.40
2010,07,23,02,12,14.40
2010,07,23,02,13,14.40
2010,07,23,02,14,14.40
2010,07,23,02,15,14.30
2010,07,23,02,16,14.30
2010,07,23,02,17,14.30
2010,07,23,02,18,14.30
2010,07,23,02,19,14.30
2010,07,23,02,20,14.30
2010,07,23,02,21,14.30
2010,07,23,02,22,14.30
2010,07,23,02,23,14.30
2010,07,23,02,24,14.30
2010,07,23,02,25,14.30
2010,07,23,02,26,14.30
2010,07,23,02,27,14.20
2010,07,23,02,28,14.20
2010,07,23,02,29,14.20
2010,07,23,02,30,14.20
2010,07,23,02,31,14.10
2010,07,23,02,32,14.10
2010,07,23,02,33,14.10
2010,07,23,02,34,14.10
2010,07,23,02,35,14.10
2010,07,23,02,36,14.00
2010,07,23,02,37,14.00
2010,07,23,02,38,14.00
2010,07,23,02,39,14.00
2010,07,23,02,40,14.00
2010,07,23,02,41,14.00
2010,07,23,02,42,14.00
2010,07,23,02,43,14.00
2010,07,23,02,44,14.00
2010,07,23,02,45,14.00
2010,07,23,02,46,14.00
2010,07,23,02,47,14.10
2010,07,23,02,48,14.10
2010,07,23,02,49,14.10
2010,07,23,02,50,14.10
2010,07,23,02,51,14.10
2010,07,23,02,52,14.10
2010,07,23,02,53,14.10
2010,07,23,02,54,14.20
2010,07,23,02,55,14.20
2010,07,23,02,56,14.20
2010,07,23,02,57,14.20
2010,07,23,02,58,14.10
2010,07,23,02,59,14.10
2010,07,23,03,00,14.10
2010,07,23,03,01,14.10
2010,07,23,03,06,13.90
2010,07,23,03,07,13.90
2010,07,23,03,08,13.90
2010,07,23,03,09,13.80
2010,07,23,03,10,13.80
2010,07,23,03,11,13.80
2010,07,23,03,12,13.80
2010,07,23,03,13,13.70
2010,07,23,03,14,13.70
2010,07,23,03,15,13.70
2010,07,23,03,16,13.60
2010,07,23,03,17,13.60
2010,07,23,03,18,13.60
2010,07,23,03,19,13.50
2010,07,23,03,20,13.50
2010,07,23,03,21,13.40
2010,07,23,03,22,13.40
2010,07,23,03,23,13.40
2010,07,23,03,24,13.40
2010,07,23,03,25,13.40
2010,07,23,03,26,13.30
2010,07,23,03,27,13.30
2010,07,23,03,28,13.30
2010,07,23,03,29,13.30
2010,07,23,03,30,13.30
2010,07,23,03,31,13.30
2010,07,23,03,32,13.30
2010,07,23,03,33,13.30
2010,07,23,03,34,13.30
2010,07,23,03,35,13.30
2010,07,23,03,36,13.30
2010,07,23,03,37,13.30
2010,07,23,03,38,13.30
2010,07,23,03,39,13.20
2010,07,23,03,40,13.20
2010,07,23,03,41,13.20
2010,07,23,03,42,13.20
2010,07,23,03,43,13.10
2010,07,23,03,44,13.10
2010,07,23,03,45,13.10
2010,07,23,03,46,13.00
2010,07,23,03,47,13.00
2010,07,23,03,48,13.00
2010,07,23,03,49,12.90
2010,07,23,03,50,12.90
2010,07,23,03,51,12.90
2010,07,23,03,52,12.80
2010,07,23,03,53,12.80
2010,07,23,03,54,12.80
2010,07,23,03,55,12.80
2010,07,23,03,56,12.80
2010,07,23,03,57,12.80
2010,07,23,03,58,12.70
2010,07,23,03,59,12.70
2010,07,23,04,00,12.70
2010,07,23,04,01,12.70
2010,07,23,04,02,12.70
2010,07,23,04,03,12.70
2010,07,23,04,04,12.60
2010,07,23,04,05,12.60
2010,07,23,04,06,12.60
2010,07,23,04,07,12.60
2010,07,23,04,08,12.60
2010,07,23,04,09,12.60
2010,07,23,04,10,12.60
2010,07,23,04,11,12.60
2010,07,23,04,12,12.60
2010,07,23,04,13,12.60
2010,07,23,04,14,12.50
2010,07,23,04,15,12.60
2010,07,23,04,16,12.50
2010,07,23,04,17,12.50
2010,07,23,04,18,12.50
2010,07,23,04,19,12.50
2010,07,23,04,20,12.50
2010,07,23,04,21,12.40
2010,07,23,04,22,12.40
2010,07,23,04,23,12.40
2010,07,23,04,24,12.40
2010,07,23,04,25,12.30
2010,07,23,04,26,12.30
2010,07,23,04,27,12.30
2010,07,23,04,28,12.30
2010,07,23,04,29,12.30
2010,07,23,04,30,12.30
2010,07,23,04,31,12.30
2010,07,23,04,32,12.20
2010,07,23,04,33,12.20
2010,07,23,04,34,12.20
2010,07,23,04,35,12.20
2010,07,23,04,36,12.20
2010,07,23,04,37,12.20
2010,07,23,04,38,12.20
2010,07,23,04,39,12.20
2010,07,23,04,40,12.20
2010,07,23,04,41,12.20
2010,07,23,04,42,12.20
2010,07,23,04,43,12.20
2010,07,23,04,44,12.20
2010,07,23,04,45,12.20
2010,07,23,04,46,12.10
2010,07,23,04,47,12.10
2010,07,23,04,48,12.10
2010,07,23,04,49,12.10
2010,07,23,04,50,12.10
2010,07,23,04,51,12.10
2010,07,23,04,52,12.10
2010,07,23,04,53,12.10
2010,07,23,04,54,12.20
2010,07,23,04,55,12.20
2010,07,23,04,56,12.20
2010,07,23,04,57,12.20
2010,07,23,04,58,12.30
2010,07,23,04,59,12.30
2010,07,23,05,00,12.30
2010,07,23,05,01,12.30
2010,07,23,05,02,12.30
2010,07,23,05,03,12.30
2010,07,23,05,04,12.30
2010,07,23,05,05,12.30
2010,07,23,05,06,12.30
2010,07,23,05,07,12.30
2010,07,23,05,08,12.30
2010,07,23,05,09,12.20
2010,07,23,05,10,12.20
2010,07,23,05,11,12.20
2010,07,23,05,12,12.20
2010,07,23,05,13,12.20
2010,07,23,05,14,12.10
2010,07,23,05,15,12.10
2010,07,23,05,16,12.10
2010,07,23,05,17,12.10
2010,07,23,05,18,12.10
2010,07,23,05,19,12.10
2010,07,23,05,20,12.10
2010,07,23,05,21,12.00
2010,07,23,05,22,12.00
2010,07,23,05,23,12.00
2010,07,23,05,24,11.90
2010,07,23,05,25,11.90
2010,07,23,05,26,11.90
2010,07,23,05,27,11.90
2010,07,23,05,28,11.80
2010,07,23,05,29,11.80
2010,07,23,05,30,11.80
2010,07,23,05,31,11.80
2010,07,23,05,32,11.70
2010,07,23,05,33,11.70
2010,07,23,05,34,11.70
2010,07,23,05,35,11.70
2010,07,23,05,36,11.70
2010,07,23,05,37,11.70
2010,07,23,05,38,11.60
2010,07,23,05,39,11.60
2010,07,23,05,40,11.60
2010,07,23,05,41,11.60
2010,07,23,05,42,11.60
2010,07,23,05,43,11.50
2010,07,23,05,44,11.50
2010,07,23,05,45,11.40
2010,07,23,05,46,11.40
2010,07,23,05,47,11.40
2010,07,23,05,48,11.40
2010,07,23,05,49,11.40
2010,07,23,05,50,11.30
2010,07,23,05,51,11.30
2010,07,23,05,52,11.30
2010,07,23,05,53,11.30
2010,07,23,05,54,11.30
2010,07,23,05,55,11.30
2010,07,23,05,56,11.30
2010,07,23,05,57,11.30
2010,07,23,05,58,11.20
2010,07,23,05,59,11.20
2010,07,23,06,00,11.20
2010,07,23,06,01,11.20
2010,07,23,06,02,11.20
2010,07,23,06,03,11.20
2010,07,23,06,04,11.20
2010,07,23,06,05,11.20
2010,07,23,06,06,11.20
2010,07,23,06,07,11.20
2010,07,23,06,08,11.20
2010,07,23,06,09,11.20
2010,07,23,06,10,11.20
2010,07,23,06,11,11.20
2010,07,23,06,12,11.20
2010,07,23,06,13,11.20
2010,07,23,06,14,11.20
2010,07,23,06,15,11.20
2010,07,23,06,16,11.20
2010,07,23,06,17,11.20
2010,07,23,06,18,11.20
2010,07,23,06,19,11.20
2010,07,23,06,20,11.20
2010,07,23,06,21,11.20
2010,07,23,06,22,11.20
2010,07,23,06,23,11.20
2010,07,23,06,24,11.20
2010,07,23,06,25,11.20
2010,07,23,06,26,11.30
2010,07,23,06,27,11.30
2010,07,23,06,28,11.30
2010,07,23,06,29,11.30
2010,07,23,06,30,11.30
2010,07,23,06,31,11.30
2010,07,23,06,32,11.40
2010,07,23,06,33,11.40
2010,07,23,06,34,11.40
2010,07,23,06,35,11.40
2010,07,23,06,36,11.40
2010,07,23,06,37,11.50
2010,07,23,06,38,11.60
2010,07,23,06,39,11.60
2010,07,23,06,40,11.70
2010,07,23,06,41,11.70
2010,07,23,06,42,11.80
2010,07,23,06,43,11.80
2010,07,23,06,44,11.80
2010,07,23,06,45,11.90
2010,07,23,06,46,12.00
2010,07,23,06,47,12.00
2010,07,23,06,48,12.10
2010,07,23,06,49,12.20
2010,07,23,06,50,12.20
2010,07,23,06,51,12.30
2010,07,23,06,52,12.40
2010,07,23,06,53,12.40
2010,07,23,06,54,12.50
2010,07,23,06,55,12.60
2010,07,23,06,56,12.70
2010,07,23,06,57,12.70
2010,07,23,06,58,12.80
2010,07,23,06,59,12.90
2010,07,23,07,00,12.90
2010,07,23,07,01,13.00
2010,07,23,07,02,13.10
2010,07,23,07,03,13.10
2010,07,23,07,04,13.20
2010,07,23,07,05,13.20
2010,07,23,07,06,13.30
2010,07,23,07,07,13.30
2010,07,23,07,08,13.40
2010,07,23,07,09,13.40
2010,07,23,07,10,13.50
2010,07,23,07,11,13.50
2010,07,23,07,12,13.60
2010,07,23,07,13,13.60
2010,07,23,07,14,13.70
2010,07,23,07,15,13.70
2010,07,23,07,16,13.80
2010,07,23,07,17,13.90
2010,07,23,07,18,13.90
2010,07,23,07,19,14.00
2010,07,23,07,20,14.10
2010,07,23,07,21,14.10
2010,07,23,07,22,14.20
2010,07,23,07,23,14.20
2010,07,23,07,24,14.20
2010,07,23,07,25,14.30
2010,07,23,07,26,14.30
2010,07,23,07,27,14.30
2010,07,23,07,28,14.40
2010,07,23,07,29,14.40
2010,07,23,07,30,14.50
2010,07,23,07,31,14.50
2010,07,23,07,32,14.60
2010,07,23,07,33,14.60
2010,07,23,07,34,14.60
2010,07,23,07,35,14.70
2010,07,23,07,36,14.70
2010,07,23,07,37,14.70
2010,07,23,07,38,14.70
2010,07,23,07,39,14.70
2010,07,23,07,40,14.80
2010,07,23,07,41,14.80
2010,07,23,07,42,14.80
2010,07,23,07,43,14.80
2010,07,23,07,44,14.80
2010,07,23,07,45,14.90
2010,07,23,07,46,14.90
2010,07,23,07,47,14.90
2010,07,23,07,48,14.90
2010,07,23,07,49,14.90
2010,07,23,07,50,15.00
2010,07,23,07,51,15.00
2010,07,23,07,52,15.00
2010,07,23,07,53,15.00
2010,07,23,07,54,15.00
2010,07,23,07,55,15.00
2010,07,23,07,56,15.00
2010,07,23,07,57,15.00
2010,07,23,07,58,15.00
2010,07,23,07,59,15.00
2010,07,23,08,00,15.00
2010,07,23,08,01,15.10
2010,07,23,08,02,15.10
2010,07,23,08,03,15.10
2010,07,23,08,04,15.10
2010,07,23,08,05,15.10
2010,07,23,08,06,15.10
2010,07,23,08,07,15.10
2010,07,23,08,08,15.10
2010,07,23,08,09,15.10
2010,07,23,08,10,15.20
2010,07,23,08,11,15.20
2010,07,23,08,12,15.20
2010,07,23,08,13,15.20
2010,07,23,08,14,15.20
2010,07,23,08,15,15.10
2010,07,23,08,16,15.20
2010,07,23,08,17,15.20
2010,07,23,08,18,15.20
2010,07,23,08,19,15.20
2010,07,23,08,20,15.30
2010,07,23,08,21,15.30
2010,07,23,08,22,15.30
2010,07,23,08,23,15.30
2010,07,23,08,24,15.30
2010,07,23,08,25,15.30
2010,07,23,08,26,15.30
2010,07,23,08,27,15.30
2010,07,23,08,28,15.30
2010,07,23,08,29,15.30
2010,07,23,08,30,15.30
2010,07,23,08,31,15.30
2010,07,23,08,32,15.30
2010,07,23,08,33,15.30
2010,07,23,08,34,15.30
2010,07,23,08,35,15.30
2010,07,23,08,36,15.30
2010,07,23,08,37,15.30
2010,07,23,08,38,15.30
2010,07,23,08,39,15.30
2010,07,23,08,40,15.20
2010,07,23,08,41,15.20
2010,07,23,08,42,15.20
2010,07,23,08,43,15.30
2010,07,23,08,44,15.30
2010,07,23,08,45,15.40
2010,07,23,08,46,15.40
2010,07,23,08,47,15.40
2010,07,23,08,48,15.40
2010,07,23,08,49,15.40
2010,07,23,08,50,15.40
2010,07,23,08,51,15.40
2010,07,23,08,52,15.40
2010,07,23,08,53,15.40
2010,07,23,08,54,15.40
2010,07,23,08,55,15.40
2010,07,23,08,56,15.50
2010,07,23,08,57,15.50
2010,07,23,08,58,15.50
2010,07,23,08,59,15.50
2010,07,23,09,00,15.60
2010,07,23,09,01,15.60
2010,07,23,09,02,15.60
2010,07,23,09,03,15.60
2010,07,23,09,04,15.70
2010,07,23,09,05,15.70
2010,07,23,09,06,15.70
2010,07,23,09,07,15.80
2010,07,23,09,08,15.80
2010,07,23,09,09,15.80
2010,07,23,09,10,15.80
2010,07,23,09,11,15.90
2010,07,23,09,12,15.90
2010,07,23,09,13,15.90
2010,07,23,09,14,15.90
2010,07,23,09,15,15.90
2010,07,23,09,16,15.90
2010,07,23,09,17,15.90
2010,07,23,09,18,16.00
2010,07,23,09,19,16.00
2010,07,23,09,20,16.00
2010,07,23,09,21,16.00
2010,07,23,09,22,16.00
2010,07,23,09,23,16.00
2010,07,23,09,24,16.10
2010,07,23,09,25,16.00
2010,07,23,09,26,16.00
2010,07,23,09,27,16.00
2010,07,23,09,28,16.00
2010,07,23,09,29,16.00
2010,07,23,09,30,16.00
2010,07,23,09,31,16.10
2010,07,23,09,32,16.10
2010,07,23,09,33,16.10
2010,07,23,09,34,16.10
2010,07,23,09,35,16.10
2010,07,23,09,36,16.00
2010,07,23,09,37,16.00
2010,07,23,09,38,16.00
2010,07,23,09,39,16.00
2010,07,23,09,40,16.00
2010,07,23,09,41,16.00
2010,07,23,09,42,15.90
2010,07,23,09,43,16.00
2010,07,23,09,44,16.00
2010,07,23,09,45,16.10
2010,07,23,09,46,16.10
2010,07,23,09,47,16.20
2010,07,23,09,48,16.20
2010,07,23,09,49,16.20
2010,07,23,09,50,16.20
2010,07,23,09,51,16.20
2010,07,23,09,52,16.20
2010,07,23,09,53,16.20
2010,07,23,09,54,16.30
2010,07,23,09,55,16.30
2010,07,23,09,56,16.30
2010,07,23,09,57,16.30
2010,07,23,09,58,16.40
2010,07,23,09,59,16.40
2010,07,23,10,00,16.40
2010,07,23,10,01,16.50
2010,07,23,10,02,16.50
2010,07,23,10,03,16.50
2010,07,23,10,04,16.60
2010,07,23,10,05,16.60
2010,07,23,10,06,16.70
2010,07,23,10,07,16.70
2010,07,23,10,08,16.70
2010,07,23,10,09,16.70
2010,07,23,10,10,16.70
2010,07,23,10,11,16.70
2010,07,23,10,12,16.70
2010,07,23,10,13,16.70
2010,07,23,10,14,16.70
2010,07,23,10,15,16.70
2010,07,23,10,16,16.70
2010,07,23,10,17,16.70
2010,07,23,10,18,16.70
2010,07,23,10,19,16.70
2010,07,23,10,20,16.70
2010,07,23,10,21,16.70
2010,07,23,10,22,16.70
2010,07,23,10,23,16.70
2010,07,23,10,24,16.60
2010,07,23,10,25,16.60
2010,07,23,10,26,16.70
2010,07,23,10,27,16.70
2010,07,23,10,28,16.70
2010,07,23,10,29,16.70
2010,07,23,10,30,16.80
2010,07,23,10,31,16.80
2010,07,23,10,32,16.80
2010,07,23,10,33,16.80
2010,07,23,10,34,16.90
2010,07,23,10,35,17.00
2010,07,23,10,36,17.10
2010,07,23,10,37,17.10
2010,07,23,10,38,17.10
2010,07,23,10,39,17.10
2010,07,23,10,40,17.10
2010,07,23,10,41,17.20
2010,07,23,10,42,17.30
2010,07,23,10,43,17.20
2010,07,23,10,44,17.20
2010,07,23,10,45,17.20
2010,07,23,10,46,17.30
2010,07,23,10,47,17.30
2010,07,23,10,48,17.30
2010,07,23,10,49,17.30
2010,07,23,10,50,17.30
2010,07,23,10,51,17.30
2010,07,23,10,52,17.30
2010,07,23,10,53,17.30
2010,07,23,10,54,17.30
2010,07,23,10,55,17.30
2010,07,23,10,56,17.30
2010,07,23,10,57,17.30
2010,07,23,10,58,17.30
2010,07,23,10,59,17.30
2010,07,23,11,00,17.20
2010,07,23,11,01,17.10
2010,07,23,11,02,17.10
2010,07,23,11,03,17.10
2010,07,23,11,04,17.10
2010,07,23,11,05,17.10
2010,07,23,11,06,17.10
2010,07,23,11,07,17.20
2010,07,23,11,08,17.20
2010,07,23,11,09,17.30
2010,07,23,11,10,17.20
2010,07,23,11,11,17.20
2010,07,23,11,12,17.20
2010,07,23,11,13,17.20
2010,07,23,11,14,17.20
2010,07,23,11,15,17.20
2010,07,23,11,16,17.30
2010,07,23,11,17,17.20
2010,07,23,11,18,17.20
2010,07,23,11,19,17.30
2010,07,23,11,20,17.30
2010,07,23,11,21,17.30
2010,07,23,11,22,17.30
2010,07,23,11,23,17.40
2010,07,23,11,24,17.50
2010,07,23,11,25,17.50
2010,07,23,11,26,17.60
2010,07,23,11,27,17.60
2010,07,23,11,28,17.70
2010,07,23,11,29,17.70
2010,07,23,11,30,17.80
2010,07,23,11,31,17.90
2010,07,23,11,32,17.90
2010,07,23,11,33,18.00
2010,07,23,11,34,18.00
2010,07,23,11,35,18.00
2010,07,23,11,36,18.00
2010,07,23,11,37,18.10
2010,07,23,11,38,18.10
2010,07,23,11,39,18.20
2010,07,23,11,40,18.20
2010,07,23,11,41,18.30
2010,07,23,11,42,18.30
2010,07,23,11,43,18.30
2010,07,23,11,44,18.30
2010,07,23,11,45,18.30
2010,07,23,11,46,18.30
2010,07,23,11,47,18.20
2010,07,23,11,48,18.20
2010,07,23,11,49,18.30
2010,07,23,11,50,18.30
2010,07,23,11,51,18.40
2010,07,23,11,52,18.40
2010,07,23,11,53,18.40
2010,07,23,11,54,18.40
2010,07,23,11,55,18.40
2010,07,23,11,56,18.50
2010,07,23,11,57,18.60
2010,07,23,11,58,18.60
2010,07,23,11,59,18.60
2010,07,23,12,00,18.60
2010,07,23,12,01,18.60
2010,07,23,12,02,18.60
2010,07,23,12,03,18.60
2010,07,23,12,04,18.70
2010,07,23,12,05,18.70
2010,07,23,12,06,18.70
2010,07,23,12,07,18.70
2010,07,23,12,08,18.80
2010,07,23,12,09,18.90
2010,07,23,12,10,19.10
2010,07,23,12,11,19.10
2010,07,23,12,12,19.20
2010,07,23,12,13,19.20
2010,07,23,12,14,19.20
2010,07,23,12,15,19.20
2010,07,23,12,16,19.20
2010,07,23,12,17,19.20
2010,07,23,12,18,19.20
2010,07,23,12,19,19.10
2010,07,23,12,20,19.10
2010,07,23,12,21,19.00
2010,07,23,12,22,18.90
2010,07,23,12,23,18.90
2010,07,23,12,24,19.00
2010,07,23,12,25,19.00
2010,07,23,12,26,19.00
2010,07,23,12,27,19.00
2010,07,23,12,28,19.00
2010,07,23,12,29,19.00
2010,07,23,12,30,19.10
2010,07,23,12,31,19.20
2010,07,23,12,32,19.20
2010,07,23,12,33,19.30
2010,07,23,12,34,19.20
2010,07,23,12,35,19.20
2010,07,23,12,36,19.10
2010,07,23,12,37,19.10
2010,07,23,12,38,19.10
2010,07,23,12,39,19.10
2010,07,23,12,40,19.20
2010,07,23,12,41,19.30
2010,07,23,12,42,19.30
2010,07,23,12,43,19.20
2010,07,23,12,44,19.20
2010,07,23,12,45,19.30
2010,07,23,12,46,19.30
2010,07,23,12,47,19.30
2010,07,23,12,48,19.30
2010,07,23,12,49,19.30
2010,07,23,12,50,19.20
2010,07,23,12,51,19.20
2010,07,23,12,52,19.20
2010,07,23,12,53,19.10
2010,07,23,12,54,19.20
2010,07,23,12,55,19.20
2010,07,23,12,56,19.20
2010,07,23,12,57,19.20
2010,07,23,12,58,19.20
2010,07,23,12,59,19.30
2010,07,23,13,00,19.30
2010,07,23,13,01,19.30
2010,07,23,13,02,19.40
2010,07,23,13,03,19.50
2010,07,23,13,04,19.60
2010,07,23,13,05,19.70
2010,07,23,13,06,19.60
2010,07,23,13,07,19.60
2010,07,23,13,08,19.60
2010,07,23,13,09,19.60
2010,07,23,13,10,19.70
2010,07,23,13,11,19.70
2010,07,23,13,12,19.80
2010,07,23,13,13,19.80
2010,07,23,13,14,19.90
2010,07,23,13,15,20.00
2010,07,23,13,16,20.10
2010,07,23,13,17,20.20
2010,07,23,13,18,20.20
2010,07,23,13,19,20.10
2010,07,23,13,20,20.10
2010,07,23,13,21,20.00
2010,07,23,13,22,20.10
2010,07,23,13,23,20.10
2010,07,23,13,24,20.10
2010,07,23,13,25,20.10
2010,07,23,13,26,20.20
2010,07,23,13,27,20.20
2010,07,23,13,28,20.30
2010,07,23,13,29,20.40
2010,07,23,13,30,20.40
2010,07,23,13,31,20.40
2010,07,23,13,32,20.40
2010,07,23,13,33,20.40
2010,07,23,13,34,20.40
2010,07,23,13,35,20.30
2010,07,23,13,36,20.30
2010,07,23,13,37,20.30
2010,07,23,13,38,20.30
2010,07,23,13,39,20.30
2010,07,23,13,40,20.30
2010,07,23,13,41,20.30
2010,07,23,13,42,20.30
2010,07,23,13,43,20.30
2010,07,23,13,44,20.40
2010,07,23,13,45,20.40
2010,07,23,13,46,20.40
2010,07,23,13,47,20.50
2010,07,23,13,48,20.60
2010,07,23,13,49,20.70
2010,07,23,13,50,20.70
2010,07,23,13,51,20.70
2010,07,23,13,52,20.80
2010,07,23,13,53,20.80
2010,07,23,13,54,20.90
2010,07,23,13,55,21.00
2010,07,23,13,56,21.10
2010,07,23,13,57,21.20
2010,07,23,13,58,21.20
2010,07,23,13,59,21.10
2010,07,23,14,00,21.10
2010,07,23,14,01,21.00
2010,07,23,14,02,20.90
2010,07,23,14,03,20.80
2010,07,23,14,04,20.80
2010,07,23,14,05,20.90
2010,07,23,14,06,21.00
2010,07,23,14,07,21.00
2010,07,23,14,08,21.00
2010,07,23,14,09,20.90
2010,07,23,14,10,20.90
2010,07,23,14,11,20.90
2010,07,23,14,12,20.90
2010,07,23,14,13,21.00
2010,07,23,14,14,21.10
2010,07,23,14,15,21.10
2010,07,23,14,16,21.10
2010,07,23,14,17,21.10
2010,07,23,14,18,21.10
2010,07,23,14,19,21.20
2010,07,23,14,20,21.20
2010,07,23,14,21,21.30
2010,07,23,14,22,21.40
2010,07,23,14,23,21.50
2010,07,23,14,24,21.60
2010,07,23,14,25,21.70
2010,07,23,14,26,21.80
2010,07,23,14,27,21.90
2010,07,23,14,28,22.00
2010,07,23,14,29,22.10
2010,07,23,14,30,22.20
2010,07,23,14,31,22.10
2010,07,23,14,32,22.00
2010,07,23,14,33,21.90
2010,07,23,14,34,21.80
2010,07,23,14,35,21.80
2010,07,23,14,36,21.80
2010,07,23,14,37,21.80
2010,07,23,14,38,21.80
2010,07,23,14,39,21.80
2010,07,23,14,40,21.80
2010,07,23,14,41,21.90
2010,07,23,14,42,22.00
2010,07,23,14,43,22.00
2010,07,23,14,44,22.00
2010,07,23,14,45,21.90
2010,07,23,14,46,21.80
2010,07,23,14,47,21.70
2010,07,23,14,48,21.70
2010,07,23,14,49,21.70
2010,07,23,14,50,21.70
2010,07,23,14,51,21.70
2010,07,23,14,52,21.80
2010,07,23,14,53,21.90
2010,07,23,14,54,21.90
2010,07,23,14,55,22.00
2010,07,23,14,56,22.10
2010,07,23,14,57,22.00
2010,07,23,14,58,22.00
2010,07,23,14,59,22.00
2010,07,23,15,00,22.00
2010,07,23,15,01,22.00
2010,07,23,15,02,22.00
2010,07,23,15,03,22.00
2010,07,23,15,04,21.90
2010,07,23,15,05,21.90
2010,07,23,15,06,21.90
2010,07,23,15,07,22.00
2010,07,23,15,08,22.00
2010,07,23,15,09,22.00
2010,07,23,15,10,22.10
2010,07,23,15,11,22.10
2010,07,23,15,12,22.00
2010,07,23,15,13,21.90
2010,07,23,15,14,21.90
2010,07,23,15,15,22.00
2010,07,23,15,16,22.10
2010,07,23,15,17,22.10
2010,07,23,15,18,22.00
2010,07,23,15,19,22.00
2010,07,23,15,20,22.00
2010,07,23,15,21,22.00
2010,07,23,15,22,22.20
2010,07,23,15,23,22.20
2010,07,23,15,24,22.20
2010,07,23,15,25,22.10
2010,07,23,15,26,22.00
2010,07,23,15,27,21.90
2010,07,23,15,28,21.90
2010,07,23,15,29,21.90
2010,07,23,15,30,21.90
2010,07,23,15,31,21.90
2010,07,23,15,32,21.90
2010,07,23,15,33,22.00
2010,07,23,15,34,22.00
2010,07,23,15,35,22.00
2010,07,23,15,36,22.10
2010,07,23,15,37,22.20
2010,07,23,15,38,22.20
2010,07,23,15,39,22.20
2010,07,23,15,40,22.10
2010,07,23,15,41,22.00
2010,07,23,15,42,21.90
2010,07,23,15,43,21.90
2010,07,23,15,44,21.80
2010,07,23,15,45,21.80
2010,07,23,15,46,21.80
2010,07,23,15,47,21.80
2010,07,23,15,48,21.80
2010,07,23,15,49,21.90
2010,07,23,15,50,22.00
2010,07,23,15,51,22.00
2010,07,23,15,52,22.10
2010,07,23,15,53,22.10
2010,07,23,15,54,22.10
2010,07,23,15,55,22.20
2010,07,23,15,56,22.20
2010,07,23,15,57,22.20
2010,07,23,15,58,22.20
2010,07,23,15,59,22.20
2010,07,23,16,00,22.20
2010,07,23,16,01,22.20
2010,07,23,16,02,22.30
2010,07,23,16,03,22.30
2010,07,23,16,04,22.40
2010,07,23,16,05,22.40
2010,07,23,16,06,22.40
2010,07,23,16,07,22.40
2010,07,23,16,08,22.40
2010,07,23,16,09,22.30
2010,07,23,16,10,22.20
2010,07,23,16,11,22.10
2010,07,23,16,12,22.10
2010,07,23,16,13,22.10
2010,07,23,16,14,22.10
2010,07,23,16,15,22.20
2010,07,23,16,16,22.20
2010,07,23,16,17,22.20
2010,07,23,16,18,22.20
2010,07,23,16,19,22.30
2010,07,23,16,20,22.50
2010,07,23,16,21,22.60
2010,07,23,16,22,22.70
2010,07,23,16,23,22.70
2010,07,23,16,24,22.80
2010,07,23,16,25,22.80
2010,07,23,16,26,22.80
2010,07,23,16,27,22.70
2010,07,23,16,28,22.60
2010,07,23,16,29,22.60
2010,07,23,16,30,22.60
2010,07,23,16,31,22.50
2010,07,23,16,32,22.50
2010,07,23,16,33,22.50
2010,07,23,16,34,22.60
2010,07,23,16,35,22.60
2010,07,23,16,36,22.60
2010,07,23,16,37,22.50
2010,07,23,16,38,22.40
2010,07,23,16,39,22.40
2010,07,23,16,40,22.50
2010,07,23,16,41,22.50
2010,07,23,16,42,22.50
2010,07,23,16,43,22.50
2010,07,23,16,44,22.50
2010,07,23,16,45,22.40
2010,07,23,16,46,22.40
2010,07,23,16,47,22.40
2010,07,23,16,48,22.40
2010,07,23,16,49,22.40
2010,07,23,16,50,22.40
2010,07,23,16,51,22.40
2010,07,23,16,52,22.50
2010,07,23,16,53,22.50
2010,07,23,16,54,22.60
2010,07,23,16,55,22.60
2010,07,23,16,56,22.70
2010,07,23,16,57,22.80
2010,07,23,16,58,22.80
2010,07,23,16,59,22.90
2010,07,23,17,00,22.90
2010,07,23,17,01,22.90
2010,07,23,17,02,22.90
2010,07,23,17,03,22.90
2010,07,23,17,04,22.90
2010,07,23,17,05,23.00
2010,07,23,17,06,23.10
2010,07,23,17,07,23.10
2010,07,23,17,08,23.20
2010,07,23,17,09,23.20
2010,07,23,17,10,23.20
2010,07,23,17,11,23.20
2010,07,23,17,12,23.20
2010,07,23,17,13,23.20
2010,07,23,17,14,23.20
2010,07,23,17,15,23.20
2010,07,23,17,16,23.10
2010,07,23,17,17,23.00
2010,07,23,17,18,23.00
2010,07,23,17,19,23.00
2010,07,23,17,20,23.00
2010,07,23,17,21,22.90
2010,07,23,17,22,22.90
2010,07,23,17,23,23.00